VIASAT-2 (42740 NORAD) Tracking and Keplerian Element Data

This shows tracking and keplerian element data for the satellite.

Feedback or suggestion? Click here.




ElementValue
Catalog42740
NameVIASAT-2
Epoch Orbit2701
Epoch Day282.53028897
Epoch Year2024
RAAN241.9661
Inclination0.0135
Eccentricity2E-05
Argument of Perigee207.8461
Mean Anonmoly48.8664
Mean Motion1.00270703
Decay Rate-2.55E-06
L11 42740U 17029A 24282.53028897 -.00000255 00000+0 00000+0 0 9997
L22 42740 0.0135 241.9661 0000200 207.8461 48.8664 1.00270703 27013



Live tracking and technical data element details for VIASAT-2 (NORAD 42740). VIASAT-2 can be tracked NOW for your location showing map with azimuth and elevation plus other details from your city location.







IsCatalogInMostPopularTable: catalog: 42740, numindb: 822
Update: records affected: 1



GetName: 42740 VIASAT-2

Hit Count: updated at: Wed, 04 Dec 2024 21:17:12 GMT